Hourly Data Report for September 19, 2017

All times are specified in Local Standard Time (LST). Add 1 hour to adjust for Daylight Saving Time where and when it is observed.

COMOX A
BRITISH COLUMBIA

49°43'00.000" N
124°54'00.000" W
25.60 m
1021830
71893
YQQ

Download Data

Hourly Data (September 2017)
Hourly Data Report for September 19, 2017
Temp Definition
°C
Dew Point Temp Definition
°C
Rel Hum Definition
%
Wind Dir Definition
10's deg

Wind Spd Definition
km/h
Visibility Definition
km
Stn Press Definition
kPa
Hmdx Definition


Wind Chill Definition


Weather Definition


TIME
00:00 9.9 9.4 97 30 9 32.2 100.21     Mostly Cloudy
01:00 9.7 9.2 97   0 12.9 100.27     Rain Showers
02:00 9.6 9.2 97 24 6 24.1 100.27     Rain Showers
03:00 9.3 9.0 98 29 6 24.1 100.28     Rain Showers
04:00 9.2 8.8 97 34 6 24.1 100.32     Rain Showers
05:00 9.1 8.3 95 32 4 32.2 100.33     Rain Showers
06:00 9.2 8.4 95 33 6 24.1 100.39     Rain Showers
07:00 9.1 8.8 98 28 6 16.1 100.41     Rain Showers
08:00 9.9 9.4 97   0 24.1 100.43     Rain Showers
09:00 10.7 9.3 91 33 4 24.1 100.45     Rain Showers
10:00 11.0 9.1 88   0 24.1 100.48     Cloudy
11:00 11.4 9.2 86   0 24.1 100.50     Rain Showers
12:00 11.4 10.2 92 4 6 24.1 100.47     Rain Showers
13:00 11.7 10.0 89 6 6 24.1 100.44     Rain Showers
14:00 13.0 9.1 77 9 7 24.1 100.41     Rain Showers
15:00 13.6 7.3 66 9 9 32.2 100.39     Mostly Cloudy
16:00 12.1 7.2 72 9 4 32.2 100.38     Mostly Cloudy
17:00 12.1 7.6 74   0 32.2 100.37     Mostly Cloudy
18:00 11.8 6.9 72 27 6 32.2 100.34     Rain Showers
19:00 10.5 8.4 87 15 4 32.2 100.30     Rain Showers
20:00 10.2 8.8 91   0 32.2 100.30     Mostly Cloudy
21:00 8.8 8.1 95 28 4 32.2 100.29     Mostly Cloudy
22:00 8.7 8.0 95 27 4 32.2 100.27     Mainly Clear
23:00 8.1 7.3 95 28 6 32.2 100.25     Mainly Clear

Notes on Data Quality.

Legend

  • E = Estimated
  • M = Missing
  • NA = Not Available
  • ‡ = Partner data that is not subject to review by the National Climate Archives
Date modified: